Location: Pine Mountain Observatory
(43.7910°N, 120.9377°W)
Time: 13:09:44
(UTC-07:00)

APEX - Visible Passes

Search period start: 25 July 2016 00:00
Search period end: 04 August 2016 00:00
Orbit: 333 x 1234 km, 69.9° (Epoch: 25 July)

Date Brightness Start Highest point End Pass type
(mag) Time Alt. Az. Time Alt. Az. Time Alt. Az.
25 Jul 6.5 00:54:35 10° WNW 00:56:48 13° NW 00:59:16 10° N visible
25 Jul 3.4 22:38:24 33° S 22:40:06 65° ESE 22:45:04 10° NNE visible
26 Jul 6.3 00:20:50 10° W 00:23:50 18° NW 00:27:22 10° N visible
26 Jul 3.9 22:05:23 20° SSE 22:07:41 41° ESE 22:12:20 10° NE visible
26 Jul 6.0 23:47:26 10° W 23:50:54 24° NW 23:55:12 10° N visible
27 Jul 7.7 05:06:40 10° N 05:09:32 13° NE 05:12:32 10° ENE visible
27 Jul 4.5 21:32:04 10° SSE 21:35:21 26° ESE 21:39:26 10° NE visible
27 Jul 5.4 23:14:15 10° WSW 23:18:03 33° NW 23:22:52 10° NNE visible
28 Jul 7.8 04:35:49 10° NNE 04:36:24 10° NNE 04:37:00 10° NE visible
28 Jul 5.1 21:00:25 10° SE 21:03:06 17° E 21:06:12 10° ENE visible
28 Jul 4.7 22:41:16 10° SW 22:45:14 48° NW 22:50:27 10° NNE visible
29 Jul 7.2 00:29:06 10° NW 00:29:59 10° NNW 00:30:54 10° NNW visible
29 Jul 3.9 22:08:28 10° SSW 22:12:31 73° WNW 22:17:53 10° NNE visible
29 Jul 6.9 23:54:23 10° WNW 23:56:51 14° NW 23:59:36 10° N visible
30 Jul 7.4 05:10:28 10° N 05:15:43 22° NE 05:21:22 10° E visible
30 Jul 3.6 21:35:51 10° SSW 21:39:53 75° ESE 21:45:14 10° NNE visible
30 Jul 6.7 23:20:32 10° W 23:23:46 18° NW 23:27:32 10° N visible
31 Jul 7.6 04:38:11 10° N 04:42:41 17° NE 04:47:28 10° ENE visible
31 Jul 3.9 21:03:25 10° S 21:07:20 48° ESE 21:12:27 10° NE visible
31 Jul 6.3 22:47:00 10° W 22:50:43 24° NW 22:55:16 10° N visible
01 Aug 7.8 04:06:01 10° N 04:09:32 14° NE 04:13:14 10° ENE visible
01 Aug 5.8 22:13:42 10° WSW 22:17:44 32° NW 22:22:50 10° NNE visible
02 Aug 8.0 03:34:11 10° NNE 03:36:19 11° NNE 03:38:30 10° NE visible
02 Aug 6.8 05:14:48 10° NNW 05:21:26 37° NE 05:28:33 10° ESE visible
02 Aug 5.1 21:40:36 10° SW 21:44:48 46° NW 21:50:18 10° NNE visible
02 Aug 7.5 23:28:14 10° NW 23:29:39 11° NNW 23:31:10 10° NNW visible
03 Aug 7.1 04:42:18 10° N 04:48:28 29° NE 04:55:05 10° ESE visible
03 Aug 4.3 21:07:39 10° SW 21:11:58 67° WNW 21:17:39 10° NNE visible
03 Aug 7.3 22:53:41 10° WNW 22:56:24 14° NW 22:59:28 10° N visible
